RH
92 96 93 97 98 93 94 91 96 90 83 94 92 90 90 90 95 89 90 86 97 99 97 98 74 59 68 92 85 80 76 82 88 84 75 80 77 64 60 54 50 53 48 41 40 37 36
95 95 91 96 94 92 96 94 91 82 80 83 92 78 90 91 92 88 97 87 78 95 98 99 79 67 75 94 69 76 65 77 87 86 77 76 67 56 52 54 51 40 43 45 43 44 42
98 95 92 94 89 96 91 93 82 91 84 91 86 88 91 93 90 90 95 92 75 92 98 100 83 72 91 73 62 76 63 64 75 81 83 75 77 61 60 56 53 49 55 54 50 46 47
96 97 95 97 98 99 94 91 86 85 90 96 86 80 72 77 70 86 79 72 58 60 100 100 86 74 89 59 64 61 63 72 78 79 78 81 82 66 66 56 51 56 59 78 55 46 44
92 91 98 99 94 95 99 92 90 84 97 92 76 76 73 77 77 77 80 84 69 52 85 100 86 84 77 66 70 62 61 62 79 79 82 92 93 82 68 65 71 62 78 76 64 41 45
97 99 98 88 94 84 87 92 82 81 82 77 82 73 76 87 82 84 78 68 61 64 80 100 89 91 82 69 70 65 59 70 76 76 91 90 85 88 86 82 95 75 76 64 60 43 43
100 92 99 98 92 86 87 84 91 94 77 77 79 71 76 84 86 90 89 68 79 76 98 96 90 76 63 65 60 59 64 66 75 76 90 88 90 97 88 80 68 64 61 57 48 39 40
99 98 99 96 87 87 77 90 95 92 76 93 93 83 90 94 96 99 98 93 88 98 92 87 95 72 65 60 62 60 65 62 68 87 62 68 78 65 64 66 71 67 58 61 51 39 42
99 99 98 89 94 88 96 98 94 91 81 91 82 84 85 86 85 97 100 87 84 92 98 96 99 79 66 63 64 62 66 61 62 71 65 78 53 50 57 58 53 56 62 62 62 51 45
98 97 97 83 96 92 94 97 86 79 74 84 83 78 84 87 91 90 94 87 89 89 100 98 93 81 65 62 66 64 65 57 60 63 64 63 52 47 58 60 54 67 51 52 54 62 74
97 93 95 87 84 92 92 88 93 94 96 91 93 94 80 82 96 98 96 92 100 82 96 98 94 76 62 71 63 64 63 54 65 61 65 72 59 58 55 55 49 59 52 57 60 71 76
94 99 89 77 81 92 78 87 88 95 90 86 87 80 91 88 100 85 99 93 77 92 95 100 89 79 82 64 62 62 61 56 51 53 56 55 46 49 54 45 46 50 56 58 63 78 96
99 98 86 77 79 80 92 90 89 89 96 95 96 97 97 96 97 91 98 79 88 96 99 100 94 76 74 74 68 66 71 75 78 81 87 65 61 48 48 59 50 60 70 94 89 95 93
100 99 88 78 80 90 92 91 91 98 89 92 100 86 92 93 95 90 85 98 86 59 93 84 75 73 93 71 72 72 78 83 66 64 89 87 88 65 54 61 67 64 70 92 93 92 83
99 98 93 79 82 86 92 88 91 98 98 100 80 96 92 93 91 88 86 99 87 100 94 95 84 79 91 71 81 73 76 76 64 64 79 84 77 53 52 50 57 68 85 65 79 77 94
99 96 98 94 91 92 88 91 94 98 98 97 84 86 90 97 96 88 97 98 98 93 70 67 96 73 90 76 84 78 79 61 62 56 52 67 80 60 57 49 54 59 59 86 92 94 94
98 98 98 87 91 88 82 92 93 98 98 95 89 86 98 95 90 88 99 100 98 75 61 58 69 71 65 80 73 74 76 57 48 52 50 55 69 77 63 72 75 72 80 64 73 87 96
98 95 94 98 90 84 72 88 45 98 99 89 91 97 99 95 96 98 100 100 90 73 62 50 46 58 61 65 74 60 67 54 40 42 58 53 76 90 81 59 59 63 68 65 92 75 89
92 84 98 84 78 79 66 37 32 100 100 89 83 94 90 99 99 100 96 94 78 73 57 54 50 46 49 59 67 57 64 52 47 48 56 57 82 95 74 69 61 76 67 64 68 82 91
90 86 91 92 85 78 59 36 39 92 93 92 93 96 91 99 94 98 96 92 91 61 60 52 50 43 51 57 57 67 72 57 52 56 50 47 74 80 87 77 77 86 68 66 77 98 80
95 96 90 88 88 77 64 44 19 83 93 98 95 87 86 99 97 93 85 82 75 71 57 51 52 50 53 63 59 58 67 67 58 59 54 64 85 74 76 73 69 75 77 76 84 78 97
96 96 90 90 85 74 74 61 18 57 89 95 91 96 99 93 86 80 87 89 74 69 65 63 65 61 60 63 64 58 63 66 70 66 64 66 85 97 92 71 74 84 76 76 77 76 89
92 92 89 92 91 78 76 67 26 31 98 98 100 99 99 78 73 70 67 67 65 59 60 58 59 71 81 79 64 65 61 56 66 75 64 76 85 98 93 70 83 92 80 75 73 79 84
88 94 92 93 83 87 79 64 36 18 95 100 100 100 99 88 72 65 63 64 70 66 69 62 64 78 77 70 64 61 64 70 70 66 58 83 81 96 98 86 95 65 54 60 70 74 76
86 99 93 94 54 77 42 34 36 26 45 98 100 99 100 96 75 59 59 70 64 61 63 80 82 82 77 74 85 84 88 76 72 79 70 73 85 95 100 96 70 57 57 57 65 70 73
92 99 94 97 91 88 92 69 27 39 25 74 99 100 100 99 79 73 57 53 68 74 70 92 85 72 72 84 84 85 93 81 98 93 78 77 78 94 99 100 91 64 50 53 65 85 63
92 98 98 98 94 97 93 92 91 61 34 35 98 99 100 99 83 72 65 62 55 64 89 90 89 84 80 89 94 80 83 60 90 86 96 95 99 98 96 97 82 58 50 65 75 71 65
93 98 100 95 97 100 90 91 95 93 74 35 70 100 100 100 88 79 73 71 62 63 80 95 86 92 95 95 92 86 82 67 67 86 87 95 97 100 99 98 92 46 53 67 65 63 65
90 98 100 98 99 97 95 97 95 95 97 84 66 100 100 100 92 88 81 81 77 75 75 79 83 86 79 91 94 94 92 80 75 80 69 84 78 88 77 74 51 52 55 60 62 63 69
Wind_Speed
20 23 25 24 26 25 26 28 28 29 27 26 26 25 25 24 25 26 22 20 20 18 15 20 14 10 11 13 12 3 3 18 19 19 21 19 17 13 7 7 15 6 6 20 20 20 10
24 23 22 25 26 27 28 28 29 32 30 28 26 26 26 26 26 26 21 20 17 18 16 20 15 12 14 9 10 8 6 12 21 19 20 21 11 16 10 6 8 7 6 5 9 15 13
23 28 25 25 26 29 28 28 30 32 31 27 26 26 26 24 25 22 20 20 18 21 16 19 18 16 14 19 11 11 10 6 5 16 21 23 10 13 6 2 0 4 2 6 8 11 6
22 25 26 28 27 28 31 33 32 32 29 28 30 26 25 25 23 21 19 19 19 21 17 15 21 17 9 15 12 13 14 12 12 10 15 19 16 8 3 1 1 3 3 1 7 11 14
23 24 26 26 29 32 30 34 34 34 29 29 27 25 23 24 21 21 20 18 16 20 20 17 24 16 8 12 24 15 17 14 11 11 9 10 16 4 2 4 2 1 3 6 7 10 6
24 24 28 28 27 30 29 30 32 31 28 25 24 24 22 23 20 21 19 19 20 14 15 14 12 10 11 12 24 20 19 17 14 14 12 7 4 3 2 3 5 5 4 3 6 5 5
24 25 26 31 31 32 33 31 30 28 26 25 24 22 22 23 24 25 18 15 3 4 12 5 11 5 9 15 19 21 26 16 18 15 4 5 3 5 8 7 5 5 4 4 5 6 3
25 28 26 29 33 32 32 29 28 27 25 24 24 21 23 21 23 22 19 9 8 2 3 21 7 12 20 26 13 24 22 12 13 5 5 3 3 5 7 10 9 6 4 5 7 4 5
24 27 28 30 30 31 29 27 26 26 26 26 24 23 21 19 22 19 12 14 9 9 2 11 11 26 23 11 7 26 23 13 10 8 6 5 1 8 4 3 4 2 2 3 5 7 5
24 26 28 30 29 29 28 27 27 28 26 27 26 22 19 19 12 24 18 4 11 6 2 8 8 12 17 12 5 24 23 16 4 10 8 3 4 3 4 3 3 1 4 2 3 4 3
24 25 26 28 29 28 28 27 27 28 28 28 25 20 20 20 22 19 5 4 10 5 1 9 8 23 20 2 22 15 23 1 7 7 6 7 4 6 3 3 5 3 5 5 4 4 5
27 24 27 29 29 28 30 28 28 29 30 25 22 23 26 27 19 10 3 12 11 2 4 4 8 11 7 18 4 22 7 3 4 2 6 4 4 3 3 3 3 6 5 4 3 3 3
25 23 27 29 28 28 29 29 28 29 29 27 26 26 16 8 8 8 17 17 4 1 4 6 8 12 13 7 7 12 8 4 4 5 0 3 3 2 3 4 4 5 5 3 0 2 6
25 23 28 28 28 28 29 30 29 28 29 25 31 15 8 1 5 19 25 1 4 4 2 5 12 15 5 11 9 6 8 4 3 2 4 4 4 8 4 4 5 4 5 4 4 3 4
23 24 29 28 27 27 29 30 29 30 29 31 14 10 9 7 15 23 7 1 1 3 4 7 13 8 5 4 7 6 4 5 4 4 4 4 2 6 6 2 5 3 3 5 1 2 3
22 24 27 30 28 27 30 30 29 30 29 22 8 12 11 10 10 19 2 3 3 5 10 13 4 4 6 6 6 5 8 8 5 8 2 1 4 5 5 3 4 5 5 2 2 2 5
22 26 26 27 26 29 31 30 29 30 26 12 6 5 8 7 11 2 2 3 3 10 20 1 5 6 9 6 5 4 11 10 7 10 5 2 3 2 3 5 7 3 3 3 2 4 4
21 24 28 27 27 29 32 31 29 30 25 8 7 3 5 2 2 1 2 3 6 5 9 2 4 8 9 6 6 3 7 1 15 13 7 3 3 3 7 5 8 5 5 5 4 4 4
20 22 26 27 27 26 31 30 29 28 18 8 5 5 4 6 2 3 3 4 3 6 2 2 3 4 15 6 5 3 5 5 12 6 10 6 2 1 2 5 2 5 7 8 5 2 7
19 23 24 24 25 26 29 29 24 20 9 6 3 2 3 5 5 1 3 4 2 8 6 6 12 15 10 5 5 6 4 3 5 5 10 11 4 5 5 3 3 3 6 9 11 3 8
19 22 23 23 22 24 26 27 23 20 4 3 4 2 2 1 1 3 1 1 5 5 7 6 10 10 9 5 8 5 6 3 4 3 4 4 3 3 4 6 4 6 7 9 11 18 9
17 20 21 22 21 22 24 25 23 21 6 6 3 2 5 3 4 2 2 2 5 4 5 6 10 11 10 4 1 10 6 4 3 2 3 2 1 2 5 8 8 6 11 12 12 16 17
15 18 19 20 19 18 20 22 21 20 19 8 8 5 2 5 1 1 1 2 1 2 12 10 7 6 9 4 10 11 9 9 9 7 6 5 3 2 4 4 6 5 7 12 7 5 6
13 17 18 18 19 17 17 18 19 16 13 8 8 6 4 3 1 1 4 6 6 4 5 6 12 4 2 4 7 8 9 8 5 6 9 4 5 3 3 4 1 5 4 6 10 8 7
11 16 16 17 18 18 16 14 15 13 10 5 7 4 3 2 3 1 3 7 5 7 8 7 6 6 5 3 2 3 1 1 4 5 6 5 4 1 2 2 6 1 2 2 3 4 2
11 15 15 16 17 17 17 15 12 11 10 7 2 6 4 3 2 6 2 3 2 2 2 4 5 3 2 1 1 3 4 5 3 3 4 5 2 1 2 1 3 3 4 3 4 3 2
9 15 15 16 16 17 16 15 13 11 10 8 3 5 3 3 5 4 1 4 3 2 3 3 3 2 2 2 2 3 3 3 4 7 5 3 2 6 6 4 6 8 6 8 1 4 2
9 15 15 16 16 15 15 13 15 13 12 9 5 4 5 4 9 3 1 1 5 4 3 6 3 1 1 2 1 2 2 3 1 6 7 7 6 3 4 3 7 5 5 1 3 4 3
10 16 15 14 17 15 15 14 14 13 11 8 6 7 7 8 6 5 5 2 3 3 6 10 2 3 5 2 1 2 2 2 2 2 3 4 6 5 7 6 7 5 4 3 5 4 2
Wind_Direction
342 347 340 331 331 334 332 332 327 322 322 320 320 321 317 313 311 311 300 300 278 273 243 239 243 218 206 211 238 277 144 182 194 195 193 193 217 227 171 198 241 221 246 253 256 272 288
345 337 330 331 332 331 327 324 316 317 316 313 319 316 315 311 309 305 298 303 273 261 241 230 227 206 205 231 222 237 182 194 211 202 197 197 206 202 214 243 205 200 221 267 284 303 320
333 328 335 334 327 322 322 323 316 316 317 315 321 316 314 310 312 303 297 296 295 258 232 230 208 206 217 217 197 185 181 152 208 203 208 203 193 190 206 254 265 98 44 336 301 289 264
334 331 336 332 328 327 323 319 320 318 325 324 314 314 317 316 317 310 303 298 277 272 237 245 185 195 235 224 193 204 182 172 174 207 222 212 198 167 138 175 99 79 60 330 247 239 242
335 337 335 334 329 327 331 327 328 326 326 317 316 317 317 317 313 311 308 304 291 277 246 198 170 176 229 211 205 201 182 170 160 166 178 171 175 121 89 132 48 229 225 222 297 248 209
343 334 330 334 333 329 332 333 330 331 328 323 322 321 321 317 315 315 310 304 295 262 263 171 158 165 229 201 196 195 178 157 164 146 136 142 124 100 174 128 192 195 226 246 239 288 201
337 334 335 338 329 328 330 332 332 328 328 326 323 323 324 315 321 309 319 320 328 215 208 186 184 211 274 181 179 175 159 165 169 156 144 180 116 193 194 189 239 269 303 279 274 296 280
340 334 334 332 331 337 337 335 335 332 331 330 325 320 320 313 322 327 310 278 273 302 288 230 238 205 144 145 138 165 158 150 157 164 126 99 216 204 199 210 229 267 267 293 294 341 5
341 339 340 334 340 340 341 338 336 336 333 329 326 324 316 311 319 328 330 255 261 285 42 211 231 193 154 147 152 169 164 150 168 158 145 141 225 211 211 284 198 348 306 288 270 334 350
341 339 338 339 343 345 343 341 338 337 336 333 329 326 314 315 328 322 320 278 231 245 256 168 191 199 170 148 114 170 160 140 153 172 163 202 228 115 148 223 139 101 6 72 30 45 260
343 340 337 344 343 346 343 341 342 338 337 327 322 320 313 310 303 315 331 209 175 165 322 150 152 154 171 212 134 188 177 189 173 161 131 228 161 166 161 183 139 168 94 66 38 26 6
340 344 344 346 345 347 344 348 344 341 334 331 324 322 313 301 290 286 221 159 133 77 244 136 143 161 123 148 106 159 161 168 115 133 139 124 67 105 198 108 84 124 65 45 61 75 295
342 346 346 347 345 345 346 345 343 336 338 338 333 333 327 301 249 167 162 148 80 228 298 119 144 141 132 139 116 150 151 130 133 111 183 45 143 135 54 116 93 89 78 9 248 223 235
345 345 348 346 348 345 345 345 338 339 339 333 333 335 2 60 159 160 158 239 101 209 210 120 136 123 110 124 143 142 141 142 265 91 110 140 314 165 181 159 168 161 140 158 221 228 283
346 348 346 347 346 346 347 344 345 341 342 338 335 49 58 73 134 161 147 2 100 298 154 126 112 132 120 113 127 147 151 159 202 199 135 126 276 140 147 125 114 190 187 170 322 315 43
348 351 347 346 350 348 348 348 349 346 349 349 24 64 74 102 132 164 333 14 1 229 121 138 75 163 145 149 124 149 164 187 204 207 189 341 111 146 146 121 209 146 158 85 8 298 278
354 348 353 351 350 351 349 351 352 352 350 7 19 69 80 125 139 137 283 9 304 168 154 185 154 140 136 156 138 160 181 160 180 186 168 123 72 35 96 194 184 176 182 212 106 175 216
356 357 356 349 348 352 351 353 355 359 358 26 43 60 156 118 52 301 321 314 26 187 264 235 102 115 150 139 144 134 181 178 174 163 184 125 109 170 217 224 187 173 190 189 142 255 245
2 356 349 352 351 351 351 358 359 8 19 60 69 56 140 320 32 356 321 290 309 16 350 113 129 95 143 121 140 109 87 14 159 145 159 146 145 63 147 12 106 195 212 202 230 28 232
357 357 346 352 351 351 353 0 6 11 47 43 75 87 336 357 66 11 317 351 19 1 32 49 109 118 128 173 132 159 112 48 81 89 159 146 153 174 183 168 128 204 210 198 192 202 267
357 353 353 352 353 350 354 1 7 7 359 59 16 41 59 271 285 273 138 17 333 30 4 43 133 151 132 106 103 107 87 83 49 107 78 100 178 273 275 260 235 216 230 227 217 241 242
357 351 355 354 356 354 354 359 6 6 19 73 98 30 343 289 149 94 12 290 31 9 11 58 84 65 74 74 34 154 133 139 180 124 122 93 229 37 281 257 235 246 243 235 241 253 248
357 346 351 353 357 353 351 354 5 10 26 23 12 29 19 315 1 50 329 177 27 36 23 47 91 82 61 33 67 70 90 146 160 144 169 155 157 91 271 327 338 284 236 214 223 209 205
354 342 347 351 355 350 345 350 1 10 21 16 2 355 342 296 60 39 356 84 41 53 109 46 49 84 101 94 92 66 57 54 74 163 155 152 171 172 260 358 307 241 244 200 214 236 210
346 338 340 344 350 349 347 347 354 7 5 36 28 359 323 282 274 341 338 127 115 83 85 68 48 87 112 80 79 122 53 152 217 214 169 148 173 189 282 252 278 336 147 240 228 281 204
336 330 332 337 346 346 347 353 348 352 357 340 346 353 274 290 243 322 184 96 150 124 99 105 126 73 68 82 106 207 201 203 157 127 187 144 138 129 352 305 261 201 277 242 120 277 244
330 324 325 331 339 341 345 346 345 340 340 330 253 323 300 278 287 346 93 194 197 168 119 138 141 83 56 133 184 207 265 130 161 173 158 182 197 222 232 260 283 252 285 154 24 257 344
322 316 317 326 330 332 334 340 343 335 328 319 274 280 348 275 267 245 247 217 190 178 153 161 109 103 95 231 216 233 242 258 121 140 166 176 169 192 182 210 264 245 304 258 234 262 311
315 310 312 319 321 324 326 329 324 322 313 311 270 233 298 251 254 232 214 177 182 173 158 163 172 149 173 193 235 344 298 311 189 231 167 183 187 180 196 210 242 320 258 238 295 288 238